Theta_e
313 312 311 317 321 320 319 319 319 322 325 325 327 328 328 328 328 327 326 325 326 326 327 327 327 328 324 318 315 315 316 319 322 323 324 323 323 323 323 323 323 323 322 323 323 323 323 323 323 322 323 323 321 316 314 317 318 320 328 330 325 326 327 326 323 317 318 321 314 312 315 317 317 315 316 318 318 320 321 324 327 326 323 324 324 321 326 333
314 312 310 313 319 320 319 320 320 319 323 326 326 328 328 328 328 326 325 324 325 326 326 327 327 326 321 316 315 315 316 317 319 321 324 324 324 325 324 323 323 323 322 323 324 324 324 323 323 323 323 324 321 318 316 316 316 322 325 324 327 331 324 320 319 314 314 317 314 313 315 315 316 315 317 320 322 324 327 327 326 327 325 325 326 322 326 333
313 312 311 311 314 318 319 320 321 318 320 326 327 327 328 328 328 327 325 324 325 326 326 326 325 322 317 314 315 315 316 316 317 318 322 324 324 325 324 324 323 323 323 323 324 324 324 323 323 323 323 324 322 320 318 314 316 318 318 323 331 326 318 316 316 315 315 315 314 313 314 314 315 316 318 319 323 326 328 327 325 327 326 325 327 323 326 332
313 312 311 311 311 315 319 319 320 319 319 324 326 327 327 328 328 327 325 324 325 325 325 324 322 318 315 314 314 315 315 316 317 318 321 323 324 325 324 325 324 324 324 323 324 324 324 324 324 324 324 323 322 321 316 312 315 315 316 325 324 316 316 319 316 316 316 314 314 314 314 314 313 316 317 318 323 326 324 323 322 322 322 324 326 324 325 331
313 312 310 310 311 314 318 319 319 320 318 321 325 327 327 327 328 327 324 324 325 325 325 322 319 317 315 315 314 315 315 317 319 317 320 322 323 324 324 325 325 325 324 324 325 324 325 324 324 324 324 324 323 324 317 312 313 314 316 319 316 313 316 317 314 315 314 313 314 313 314 315 314 315 317 318 323 324 320 319 318 317 318 320 323 323 324 329
313 312 310 310 311 314 317 318 318 319 318 320 324 327 328 328 327 326 324 324 324 324 324 320 317 316 316 316 315 315 315 319 321 318 319 320 322 323 324 325 325 325 325 325 325 325 326 323 325 324 322 323 323 325 320 314 312 314 316 315 314 314 314 315 314 314 313 313 313 312 314 315 314 315 316 318 319 318 317 317 318 317 318 319 320 322 322 324
313 313 311 309 311 314 317 318 319 318 318 320 324 327 328 328 327 327 325 324 324 324 324 321 316 314 315 315 316 316 315 320 323 319 318 318 320 321 322 324 324 325 324 325 325 325 326 324 325 323 322 324 320 320 319 315 313 313 316 314 313 314 312 315 314 313 314 313 314 314 314 313 314 315 315 316 318 317 317 316 317 317 319 321 321 322 319 318
312 313 312 310 310 314 316 318 318 318 318 318 322 327 327 327 327 327 325 324 323 322 323 321 317 315 316 315 316 317 316 318 322 321 319 318 318 319 320 321 322 324 324 324 324 324 325 325 325 323 325 325 319 317 316 314 314 313 315 312 310 312 313 313 313 313 313 313 314 313 313 313 313 314 313 315 318 317 317 315 315 317 318 321 322 322 320 317
311 312 312 311 309 311 314 314 315 316 316 316 318 324 327 327 327 327 326 324 322 321 320 318 317 317 317 316 316 319 318 317 320 322 322 319 318 318 318 320 320 322 323 323 324 324 324 324 324 324 325 322 319 318 315 314 314 312 313 311 309 310 311 312 313 313 313 313 313 313 313 312 312 312 314 315 316 317 317 315 315 316 318 320 323 322 321 317
310 311 311 312 309 309 313 314 313 313 315 316 316 318 324 327 326 326 326 325 322 320 318 317 317 317 318 317 317 318 319 319 320 321 323 321 318 317 318 319 320 321 323 322 323 323 324 324 324 324 324 321 319 318 315 314 313 311 311 311 310 311 311 312 313 313 313 312 312 314 313 311 311 312 316 316 315 316 316 315 315 316 317 319 322 322 320 318
308 309 309 311 310 309 313 314 312 312 313 315 316 316 321 327 327 326 327 325 322 320 318 317 317 317 318 318 317 318 320 319 319 320 323 322 319 317 317 318 319 320 322 322 322 323 323 324 324 324 324 322 319 318 316 314 312 312 311 311 311 311 312 312 312 312 313 313 312 313 312 310 311 312 315 315 314 315 315 315 315 316 317 318 320 322 321 320
307 307 308 309 310 310 312 313 312 312 312 314 316 316 318 324 327 326 327 325 322 320 318 316 316 317 318 318 317 318 321 320 318 321 323 322 320 319 318 318 319 319 322 323 322 322 323 323 324 324 324 322 320 321 319 315 314 314 311 312 313 311 313 313 311 312 312 313 312 312 313 313 313 313 314 314 314 315 314 315 316 316 317 318 321 321 320 320
306 306 306 307 309 310 312 314 312 312 312 313 317 318 316 323 327 325 326 325 323 320 318 316 315 317 319 319 319 319 322 320 319 322 323 323 322 321 321 320 320 320 321 322 322 322 323 323 324 324 323 320 320 321 319 316 316 314 311 310 312 313 316 313 310 311 312 312 312 312 316 318 315 313 313 314 314 314 314 315 316 317 318 319 320 321 321 320
306 305 305 305 307 310 312 313 313 313 314 313 316 319 317 322 326 325 326 326 323 320 318 316 316 318 319 320 319 319 321 320 319 321 322 323 323 323 323 322 322 321 322 322 322 323 323 323 323 323 322 320 319 320 322 320 315 311 311 311 312 314 320 317 309 310 313 312 311 312 315 319 317 313 312 313 313 314 315 316 316 317 318 319 321 321 321 320
305 305 304 305 306 309 311 312 314 316 317 314 315 318 317 319 325 325 325 325 324 321 318 317 317 319 319 319 319 319 321 320 320 321 321 322 323 324 324 324 323 323 323 322 323 323 323 323 323 323 321 319 320 322 326 326 318 311 312 317 316 313 319 320 310 309 314 312 310 312 315 317 316 313 312 312 313 314 315 316 317 317 318 319 320 321 320 320
305 305 305 305 305 307 310 312 314 316 316 315 315 316 316 317 322 326 324 325 324 321 319 319 319 319 319 319 319 319 321 321 321 321 321 321 322 324 325 325 325 324 324 323 323 323 324 323 323 322 320 320 323 326 328 326 323 317 312 317 320 314 315 318 312 309 311 312 311 312 315 318 315 310 310 311 312 314 317 318 318 317 318 319 320 320 320 320
305 305 305 305 305 306 309 311 314 315 314 313 314 314 315 316 321 326 325 324 324 321 319 320 320 319 319 319 319 320 320 321 321 321 321 322 321 322 324 325 325 325 325 324 323 323 324 323 321 322 320 320 322 325 327 324 325 322 312 313 317 315 313 315 316 311 309 312 313 312 313 316 315 309 309 310 310 315 318 318 319 318 317 318 319 320 320 320
305 305 305 305 305 306 308 310 313 316 314 312 312 313 314 316 321 326 325 325 324 322 321 320 320 320 320 319 320 320 319 320 322 322 322 323 322 321 322 324 324 325 324 323 322 323 323 319 319 323 321 320 320 323 326 323 322 321 314 313 315 315 313 314 317 313 310 313 314 314 313 314 314 311 309 309 310 315 319 318 319 318 318 318 319 319 320 320
305 305 305 306 306 305 307 310 312 315 316 315 313 312 314 319 323 326 326 325 324 323 323 322 320 322 321 319 320 320 319 320 322 322 323 323 323 322 322 323 323 323 322 321 321 320 319 318 320 324 322 320 319 321 323 319 317 317 314 313 314 314 313 313 316 313 310 313 314 314 314 313 314 313 310 310 309 312 316 318 319 319 319 320 320 319 319 319
305 305 305 306 307 306 306 309 311 314 317 318 316 314 317 322 324 325 324 324 324 322 323 322 320 320 319 319 321 321 320 321 322 323 323 323 323 323 322 322 322 322 321 321 321 318 318 321 322 323 323 321 318 319 319 315 313 312 311 311 311 312 312 313 316 312 308 312 314 313 313 313 313 313 310 308 309 309 311 315 317 318 319 320 320 318 317 317
304 304 305 305 306 307 306 308 310 313 317 317 316 316 318 322 324 324 322 322 322 321 321 322 320 319 319 319 321 321 321 321 321 323 323 322 323 322 320 320 321 321 320 319 319 317 319 323 323 322 323 321 318 317 316 315 314 311 310 310 311 311 311 312 314 313 309 311 315 314 312 313 312 312 309 307 308 309 310 311 313 315 316 318 318 317 316 316
303 303 304 304 305 306 306 307 308 311 316 317 317 317 316 319 323 324 323 320 319 320 321 321 320 319 319 320 321 321 321 319 319 321 321 321 322 321 318 319 321 319 317 317 319 319 320 323 323 320 319 318 315 314 314 314 312 311 310 310 312 312 312 312 312 313 311 311 316 315 312 312 312 312 309 306 308 310 311 311 313 314 315 316 317 316 316 316
302 302 303 303 304 305 305 306 308 310 313 316 318 317 314 315 320 322 323 320 317 317 319 319 319 319 319 320 320 321 320 318 317 319 321 321 321 320 318 318 319 317 316 318 321 321 321 323 321 317 316 316 314 312 312 312 311 312 310 309 312 312 312 314 313 313 312 311 313 314 314 314 313 313 311 308 308 310 311 311 312 313 314 315 316 315 315 315
302 302 302 302 303 303 303 304 307 309 312 315 317 317 314 314 317 321 321 318 315 314 315 318 319 319 319 319 320 320 320 319 318 318 320 321 319 318 319 318 317 317 317 319 320 321 320 319 316 315 317 317 314 313 313 314 314 313 310 310 311 311 312 313 313 312 312 311 311 313 315 315 314 315 314 311 309 308 309 310 311 312 313 313 313 314 314 314
301 302 301 301 302 301 301 304 306 308 312 315 317 317 317 314 315 320 320 317 316 314 313 316 317 319 319 320 319 319 319 318 318 318 319 320 319 317 317 317 317 318 318 318 320 321 318 314 314 316 317 317 315 314 313 314 315 313 311 311 309 310 312 313 314 312 313 315 313 313 315 318 322 321 316 313 311 310 309 307 309 312 312 312 313 313 314 314
302 302 301 301 301 299 302 305 307 309 310 313 316 317 319 316 315 319 319 319 318 313 313 316 317 319 319 318 318 319 320 317 316 317 317 318 319 318 317 315 316 318 317 317 319 320 316 313 314 316 316 316 316 315 313 313 313 312 312 311 309 310 312 313 315 314 317 319 313 311 315 320 323 322 319 315 313 313 311 307 307 310 312 312 313 314 314 314
302 302 302 302 302 300 303 306 307 308 310 313 314 316 319 317 315 319 319 320 319 314 314 315 316 319 318 317 318 320 321 317 315 316 315 316 317 317 318 315 315 317 315 316 321 319 314 313 315 316 316 316 316 316 314 312 312 313 313 313 311 309 311 314 315 317 319 318 313 311 315 318 317 317 318 313 312 314 312 310 308 308 311 313 314 314 314 314
303 303 302 303 304 301 302 306 308 308 310 313 313 315 319 318 317 318 318 321 319 314 314 314 314 317 316 317 319 318 318 318 317 315 313 315 315 315 316 315 315 316 313 317 323 317 312 314 316 316 316 316 316 316 313 311 312 312 313 314 311 310 313 314 315 316 316 315 316 314 313 316 318 320 318 311 313 315 314 314 311 308 311 314 314 315 315 314
303 303 303 303 304 303 302 305 309 309 309 312 313 316 318 319 317 316 319 321 317 313 314 313 313 315 314 316 316 315 316 318 317 315 311 312 314 314 314 313 313 314 313 315 319 315 312 313 314 315 316 316 316 316 312 311 312 310 312 316 317 318 317 315 316 316 313 313 317 318 314 314 319 324 320 312 313 315 315 316 311 307 311 314 314 315 315 315
303 303 303 303 304 304 304 304 307 310 310 311 314 317 318 318 316 316 320 319 314 313 313 313 313 314 313 314 314 315 316 315 314 313 311 311 313 312 313 312 312 314 313 314 316 314 312 312 312 313 314 314 314 314 310 310 310 308 312 316 319 322 319 318 321 317 313 315 316 317 315 313 317 321 319 315 316 316 315 316 312 308 310 313 314 314 315 315
303 303 303 304 305 305 304 304 306 309 311 312 315 318 319 317 315 318 320 316 313 313 312 313 313 314 314 314 315 315 314 313 312 311 310 310 311 311 312 313 312 314 315 314 315 313 310 312 312 311 311 311 312 312 310 310 309 309 315 316 316 320 318 319 322 314 313 317 314 313 313 311 314 318 317 315 317 317 314 316 317 312 310 312 312 313 313 314
303 303 303 304 305 305 304 305 306 307 310 314 316 316 317 316 315 319 318 315 315 313 312 314 314 314 314 315 316 315 314 313 312 311 310 310 310 311 313 314 314 316 316 315 316 314 313 314 312 311 311 311 312 313 313 313 312 312 316 315 314 317 315 317 318 314 316 316 310 310 311 311 313 315 316 316 315 314 310 310 314 311 310 312 312 312 312 313
303 304 304 304 305 305 304 304 307 308 309 314 316 315 316 317 318 318 315 314 315 313 312 314 314 314 315 315 315 314 314 314 312 311 311 310 311 311 312 313 314 319 318 315 315 315 315 314 312 312 312 311 312 313 314 315 315 314 312 313 314 316 316 316 316 315 318 316 310 309 311 314 316 315 317 317 314 312 307 307 310 309 310 312 312 312 312 312
303 304 304 304 305 305 305 305 307 309 310 314 317 316 317 319 317 316 315 313 313 312 313 314 313 314 314 315 315 314 315 314 311 311 311 311 312 311 312 312 313 317 316 315 315 315 317 316 314 313 313 312 311 313 315 317 315 312 312 314 314 315 317 318 317 318 320 318 312 310 313 319 321 318 315 311 308 308 308 309 310 309 310 311 311 312 313 313
303 303 304 304 305 305 306 306 307 309 311 315 317 316 317 319 316 314 314 312 311 312 313 313 313 314 314 314 314 313 314 314 312 311 311 311 311 311 312 311 312 315 315 315 315 314 317 317 313 311 311 311 311 312 313 315 314 313 314 314 313 315 319 316 316 318 319 319 315 311 316 321 319 315 312 307 306 308 307 308 309 309 311 311 312 313 312 313
303 303 304 304 305 306 306 307 307 309 312 315 317 316 317 318 315 314 313 311 311 312 312 314 314 314 314 313 313 313 313 313 313 312 311 312 312 311 312 311 311 313 314 316 316 315 317 316 311 310 310 310 311 312 311 313 315 313 312 313 312 315 318 315 313 313 313 316 316 313 315 319 316 314 316 315 313 311 309 308 307 309 311 311 312 313 313 313
303 303 304 305 305 306 306 307 308 311 312 315 317 316 316 315 312 312 311 310 312 312 313 315 314 314 315 313 313 314 314 314 313 312 312 312 312 311 311 310 310 312 313 315 316 315 317 315 310 310 312 309 309 311 310 310 313 314 314 313 311 312 315 315 315 316 314 314 318 316 314 316 317 317 319 317 314 315 315 312 308 308 310 311 313 313 313 313
304 304 305 305 306 306 306 307 310 312 313 314 316 315 313 312 310 310 310 311 312 313 314 316 315 314 315 314 314 314 314 315 313 313 313 312 313 312 310 310 310 311 311 313 316 316 317 317 311 311 313 310 308 312 312 310 309 312 314 312 312 314 315 314 314 317 315 313 319 319 312 313 316 319 320 314 314 318 316 315 313 309 309 310 313 313 313 313
305 305 306 307 306 307 307 308 311 313 313 314 315 314 311 310 309 309 311 312 313 314 315 315 315 314 314 315 315 314 315 315 314 314 314 313 314 313 310 310 310 310 310 312 316 315 318 321 314 311 313 312 310 312 314 312 309 309 310 309 312 314 314 315 315 316 316 315 319 318 313 316 317 318 321 316 316 319 315 316 316 310 308 310 312 313 313 313
306 307 308 307 307 307 308 310 312 314 314 314 314 313 310 309 310 310 311 312 313 314 315 315 314 314 314 315 314 314 315 315 313 314 314 314 314 312 310 310 310 310 310 311 315 314 315 319 316 312 312 312 312 312 314 314 311 310 311 311 311 310 313 316 314 315 317 318 319 316 315 324 323 316 317 316 317 319 315 316 313 307 308 311 311 313 313 313
307 309 310 309 308 309 311 312 313 314 314 313 313 311 309 309 310 310 311 312 312 312 313 314 314 314 314 314 314 313 315 315 314 315 315 314 314 313 311 309 309 310 311 311 313 313 314 316 315 313 312 312 313 313 313 314 313 312 313 312 312 311 313 316 314 314 315 314 318 316 315 325 325 314 312 314 316 315 310 309 308 306 308 310 311 311 313 313
308 310 312 312 310 312 313 312 313 314 314 312 310 309 309 309 310 310 311 312 312 311 312 313 314 314 313 313 314 313 314 315 314 315 315 314 313 313 311 309 308 309 311 312 311 311 314 317 315 313 314 314 313 310 308 311 315 315 313 313 314 312 312 314 314 316 313 311 314 314 312 319 323 316 311 309 308 306 303 303 304 306 309 310 310 311 311 313
310 312 313 313 312 312 313 313 313 313 313 310 309 309 309 309 311 311 311 312 312 312 313 313 313 313 313 313 313 313 314 314 314 314 314 313 312 311 309 308 308 309 311 312 311 310 313 316 315 314 314 314 314 312 308 309 314 316 314 314 314 313 314 314 315 317 316 314 314 312 312 320 327 320 307 300 300 302 303 305 305 307 310 311 310 310 310 311
312 312 312 313 313 313 313 314 314 311 310 309 308 308 307 308 310 311 312 312 311 312 313 313 312 312 313 313 312 313 314 314 314 314 314 314 311 309 308 308 309 311 310 311 312 312 314 315 314 315 315 315 316 316 313 312 312 314 315 314 313 315 315 312 311 312 313 316 317 313 314 321 326 321 308 302 305 307 304 305 307 307 309 310 310 310 310 310
312 312 311 312 313 313 313 314 313 310 308 309 309 307 307 308 309 310 312 311 310 312 313 312 312 312 312 313 312 312 313 315 315 313 312 313 310 307 308 308 309 310 310 311 311 313 317 317 314 315 316 316 317 316 315 315 313 314 316 313 311 313 312 312 313 311 311 316 316 313 316 321 322 318 313 312 316 314 308 306 307 307 308 310 310 310 310 310
312 312 311 311 312 313 312 311 311 310 309 310 309 308 309 309 309 309 311 311 309 311 312 311 311 312 312 313 313 313 313 313 314 313 311 312 311 307 307 308 309 309 310 311 310 314 320 318 313 315 316 315 317 317 317 317 314 314 316 315 313 312 312 315 317 313 314 316 314 314 317 317 317 317 315 316 318 319 314 308 307 309 309 310 310 310 311 311
313 312 311 311 312 312 310 309 310 310 309 311 311 309 309 310 310 309 310 310 309 310 311 310 311 313 313 313 313 313 313 312 313 313 311 311 313 309 306 308 309 309 310 311 310 315 319 316 314 315 315 316 319 318 317 316 315 314 314 315 316 315 313 315 315 313 316 315 313 317 317 313 314 319 321 320 319 319 314 306 306 309 309 310 311 311 311 311
311 311 311 311 313 314 310 308 310 311 310 312 311 309 309 310 310 310 310 310 309 309 311 311 312 313 312 313 313 313 313 312 312 312 311 311 312 310 308 308 309 309 311 311 310 312 315 314 314 315 315 316 318 318 316 316 314 314 315 314 315 315 314 315 314 313 315 314 311 317 320 316 314 317 320 318 313 311 309 307 308 309 309 310 311 311 311 312
310 310 310 311 313 313 311 309 310 311 311 312 311 309 309 309 309 310 311 310 310 310 311 312 312 312 312 313 313 313 312 312 312 312 311 311 311 310 309 309 309 308 310 311 311 311 312 314 314 313 313 314 315 315 316 317 316 315 316 314 314 315 314 314 314 312 313 314 312 314 317 315 313 315 317 313 307 305 306 308 309 309 309 310 310 311 311 311
311 311 310 311 312 312 311 310 310 311 311 311 311 309 309 309 310 310 310 310 311 311 311 312 312 312 312 313 313 313 313 312 313 312 310 311 311 310 310 310 309 309 310 311 311 309 311 314 313 312 313 312 312 312 313 315 317 316 316 315 314 314 314 313 313 313 313 313 312 312 314 313 311 311 310 308 307 307 306 307 309 309 309 310 310 311 311 311
311 311 311 312 312 312 312 310 310 312 311 311 311 310 309 310 310 310 310 310 310 311 312 312 312 311 312 313 313 313 312 312 312 311 310 310 310 310 311 310 309 309 311 312 312 311 312 313 310 311 314 312 310 312 312 312 314 314 315 316 314 314 314 314 313 313 313 313 313 313 313 312 311 309 307 308 309 306 305 307 309 310 310 311 311 312 312 312
311 311 311 312 312 311 311 311 311 311 311 311 311 310 310 310 310 311 311 309 309 310 311 311 311 311 312 312 313 312 311 310 310 309 309 310 309 309 310 309 308 310 310 312 314 315 315 314 312 313 314 311 310 313 314 313 312 313 314 313 313 313 314 314 314 314 313 313 313 313 312 313 314 313 311 311 310 306 306 308 310 310 311 311 312 312 312 312
Wind_Speed
27 32 39 38 33 33 32 31 31 35 43 47 46 44 44 41 40 41 38 36 35 35 35 35 35 36 37 35 37 37 32 28 26 26 26 27 24 22 27 27 26 23 17 17 20 21 18 13 12 14 10 1 9 12 11 8 6 4 2 3 1 3 3 5 6 7 3 2 6 11 17 13 6 9 11 7 7 7 13 15 10 17 17 9 6 4 16 26
26 29 38 40 34 30 31 33 32 31 37 46 45 44 45 42 40 41 39 37 36 36 36 36 37 37 38 36 38 39 34 30 26 26 27 27 25 21 22 25 25 23 18 15 18 21 17 12 13 15 9 3 5 8 10 10 8 3 3 1 3 4 4 5 7 8 4 2 7 12 15 15 10 12 14 6 5 8 10 12 10 15 18 14 9 7 18 26
25 28 35 43 41 31 28 31 31 29 31 41 45 45 46 43 41 41 41 39 38 38 37 36 37 38 38 37 39 39 35 30 26 27 29 27 25 22 20 22 25 24 20 14 13 20 20 11 11 15 10 5 4 6 9 11 9 4 2 0 4 4 4 5 7 9 8 4 6 11 12 13 11 14 15 7 5 7 8 13 13 15 19 18 13 10 20 27
25 29 32 38 43 36 30 30 31 30 29 36 43 46 49 46 42 42 42 40 40 39 38 38 38 39 39 38 38 39 35 22 24 32 32 28 24 22 21 20 22 23 22 17 12 15 21 20 13 12 9 5 5 5 7 11 9 5 1 2 3 0 2 6 7 8 10 7 6 10 10 10 12 15 15 10 6 4 13 21 20 18 20 20 17 14 22 27
24 28 31 34 41 38 32 31 30 29 29 31 39 45 49 49 44 43 42 41 42 41 39 39 39 39 38 38 36 38 32 10 18 36 34 30 27 22 22 21 19 20 20 18 14 11 13 21 18 10 5 2 6 5 4 12 11 5 4 4 5 2 2 8 7 6 7 7 7 10 9 11 14 14 17 16 9 8 16 24 23 19 17 19 19 18 23 29
23 26 30 34 39 37 34 33 29 29 28 28 36 43 47 52 48 43 42 42 42 41 40 40 41 39 37 36 34 35 31 7 8 34 36 31 30 25 23 22 19 18 16 15 15 11 11 16 16 10 3 3 3 4 2 12 12 3 5 6 10 7 6 11 10 8 7 7 9 11 10 13 15 11 17 22 18 14 12 17 20 19 16 17 20 20 24 30
23 25 29 34 37 36 34 33 29 28 27 26 34 42 44 49 49 43 43 42 43 42 41 42 41 39 36 35 31 32 35 15 3 24 38 33 31 29 25 24 22 18 14 13 13 13 13 14 17 14 6 2 1 1 4 12 11 2 4 7 13 13 10 13 14 12 9 8 11 10 10 14 17 10 11 23 27 18 8 8 15 20 17 17 21 21 23 28
22 23 28 33 36 36 35 32 27 26 26 24 31 41 45 48 46 43 42 42 44 43 41 43 40 38 36 35 32 28 32 24 4 9 30 36 32 30 28 24 23 20 15 12 12 14 12 13 16 16 7 3 3 2 6 9 7 1 3 10 17 18 17 17 16 14 10 10 10 10 10 13 17 9 7 22 28 21 13 8 9 18 19 19 23 23 23 28
22 23 24 30 36 38 37 35 31 30 28 26 29 36 44 50 47 43 42 42 45 44 43 43 40 37 35 35 34 22 26 34 15 3 15 32 34 31 29 26 24 23 17 13 12 14 12 12 15 14 8 5 5 2 6 3 2 3 7 15 19 22 22 20 16 12 8 8 9 11 8 9 13 7 8 20 23 21 18 11 9 16 19 20 23 24 25 27
21 22 22 27 35 37 35 35 36 38 34 28 29 31 37 49 50 45 43 43 45 45 44 43 40 37 34 36 31 15 23 39 27 6 6 24 34 33 31 28 27 26 20 15 13 15 14 13 14 12 9 7 6 2 3 1 3 9 15 18 19 21 21 15 12 8 5 6 10 12 4 4 8 5 7 12 16 21 20 13 11 16 19 20 23 25 26 27
20 21 20 23 33 37 34 34 35 40 38 31 31 30 32 44 51 48 45 43 45 46 45 44 41 38 35 36 29 13 20 37 32 13 5 18 31 34 34 32 30 30 25 19 15 16 15 13 13 11 6 6 6 2 2 3 7 14 17 17 18 18 16 12 10 8 4 3 9 11 2 1 4 4 8 8 11 19 20 15 13 17 18 19 22 25 27 28
20 21 21 21 29 35 35 35 34 37 39 35 33 32 32 39 49 49 45 44 45 46 45 44 41 38 35 32 28 20 20 32 33 16 8 17 26 28 30 31 29 30 29 22 17 17 16 14 14 10 5 6 6 2 2 3 9 16 13 9 12 12 10 10 8 7 5 2 7 9 1 3 4 9 13 9 10 15 17 17 16 19 20 20 23 26 27 28
21 21 21 20 25 32 34 35 35 34 37 37 32 32 32 39 52 50 45 44 44 46 45 44 41 39 35 25 23 24 21 29 34 19 15 17 22 24 24 25 25 25 25 21 17 17 16 14 14 11 8 7 6 4 0 4 9 13 8 2 6 8 5 6 3 6 6 3 7 9 3 6 8 16 16 10 12 15 16 18 18 21 22 22 24 27 28 29
22 21 21 20 21 29 32 34 36 34 38 40 35 32 31 37 52 51 47 45 43 45 45 43 42 39 32 20 20 25 21 28 34 24 18 18 20 22 21 21 20 20 19 17 15 15 15 14 13 12 10 8 6 4 0 6 6 6 5 2 2 2 5 6 1 6 6 4 7 7 4 6 8 16 16 12 13 16 18 19 21 23 25 25 26 28 29 29
22 21 21 21 21 26 31 34 34 32 35 40 38 33 29 30 44 52 48 45 44 44 44 43 42 38 26 15 20 25 22 27 32 26 21 18 18 20 19 19 19 18 17 15 14 14 14 12 12 13 11 9 6 4 2 4 3 2 4 4 2 2 6 7 2 7 5 3 6 6 3 6 8 12 13 14 15 17 20 21 22 24 26 27 28 29 29 29
21 21 21 22 22 24 31 35 34 32 32 37 36 31 29 28 36 50 48 46 46 44 46 44 43 39 20 10 20 26 24 26 29 27 24 20 18 19 20 19 18 18 16 15 15 15 15 12 12 15 12 8 5 4 4 1 3 1 1 4 3 2 3 5 3 4 3 2 4 4 3 3 5 6 6 14 18 18 20 21 22 25 26 28 29 29 30 30
21 22 22 23 23 24 31 35 35 34 33 36 36 33 28 27 35 50 49 50 47 45 49 46 47 38 15 10 21 29 30 28 28 27 25 22 20 19 20 20 19 18 18 18 18 17 17 15 13 10 7 5 5 5 3 5 8 4 1 3 4 3 3 3 4 3 3 3 2 4 3 5 7 5 2 9 18 19 21 22 23 25 26 28 29 30 32 32
21 23 23 24 24 24 31 36 35 35 35 37 38 37 29 27 36 48 52 53 49 48 46 42 44 25 8 18 27 34 38 32 29 28 26 25 20 19 20 19 20 21 20 18 16 17 14 11 8 5 3 4 5 7 6 5 5 5 3 3 4 4 4 4 4 3 4 3 3 5 5 9 12 10 6 5 12 18 20 21 22 24 27 28 30 32 33 33
22 24 24 25 24 23 28 35 36 35 37 36 36 40 34 30 39 47 55 58 48 35 23 33 43 16 10 31 34 37 41 35 31 28 29 29 23 22 20 18 21 23 20 11 7 12 12 7 4 3 4 5 6 8 7 3 4 3 4 2 3 4 4 5 5 4 3 3 5 7 6 9 13 13 9 5 9 16 18 18 20 23 26 28 30 32 33 34
23 25 25 25 25 24 26 33 35 34 36 33 32 36 32 27 27 28 42 55 50 31 18 45 58 21 16 38 37 37 38 34 33 32 32 31 28 26 22 21 22 17 13 7 4 9 10 5 4 5 6 8 8 7 6 5 4 1 2 3 4 4 5 5 4 5 1 4 6 7 8 10 12 11 8 5 6 12 17 20 22 24 25 28 31 32 32 33
25 25 26 26 26 24 24 31 33 34 37 33 33 34 30 24 15 13 22 29 39 34 24 51 56 21 22 41 42 44 40 29 32 35 31 31 32 25 20 20 14 6 6 10 9 7 8 5 5 6 7 9 9 8 8 5 1 3 4 5 6 4 6 6 4 5 2 3 4 3 6 10 12 11 8 5 5 11 19 22 24 26 26 27 30 32 33 31
26 27 27 26 26 25 23 28 31 32 36 33 32 34 39 33 18 25 25 11 16 25 27 43 39 21 30 40 42 47 39 22 23 33 32 33 32 20 15 14 8 4 6 10 8 4 4 3 5 8 9 10 9 10 9 7 3 3 4 4 6 3 4 6 3 4 3 2 3 2 4 9 11 11 7 8 11 15 22 23 26 29 27 28 31 33 33 32
27 28 28 27 28 27 23 27 29 29 32 33 33 37 48 43 20 26 31 11 8 15 27 37 31 31 38 36 41 47 37 22 22 33 36 33 27 20 18 11 7 8 7 8 6 5 3 3 7 12 13 12 9 10 11 6 3 3 3 4 6 3 2 3 2 2 2 1 0 1 3 7 8 7 6 13 20 20 21 22 24 27 29 32 33 32 33 33
28 28 29 28 28 27 23 25 25 27 32 33 38 41 49 50 29 21 25 9 6 6 19 30 32 39 40 36 43 42 34 28 27 34 37 34 26 21 19 12 10 8 7 9 9 6 1 3 11 15 12 12 10 10 11 7 4 5 6 6 7 5 4 3 3 3 2 2 1 2 4 6 6 7 7 10 14 16 19 19 20 25 29 32 31 31 33 34
27 29 30 28 28 27 22 21 25 31 34 35 42 42 46 52 37 26 20 6 3 4 10 23 25 32 39 39 40 34 27 24 27 37 39 35 30 21 14 13 11 7 9 11 8 5 1 4 13 13 9 12 11 9 10 9 6 5 6 8 9 8 6 3 4 3 1 3 2 1 3 7 4 5 9 7 4 9 14 14 20 26 28 29 31 34 35 34
26 28 29 27 27 25 18 20 30 34 32 38 45 39 42 50 40 31 17 4 3 3 7 19 16 24 35 33 35 33 19 11 22 38 36 31 32 24 14 9 5 5 10 9 4 2 2 6 11 11 11 12 10 8 9 9 6 3 5 7 10 9 6 3 2 1 3 4 3 1 5 7 6 5 8 5 4 8 9 8 17 26 27 28 32 35 35 34
25 26 27 26 25 24 22 24 31 33 32 41 47 39 37 46 44 34 14 2 5 5 8 13 11 22 30 31 39 27 10 13 23 33 34 28 28 23 15 8 4 5 8 7 2 1 4 7 7 8 11 9 8 8 8 10 7 3 3 4 7 8 7 6 3 4 4 3 4 1 3 4 6 7 5 1 3 8 8 8 14 22 27 31 35 37 36 36
26 26 26 26 24 28 32 27 23 32 41 43 46 42 37 44 45 32 10 3 5 7 7 7 12 24 29 35 38 17 15 27 20 21 31 28 23 18 10 8 8 7 7 6 5 1 5 9 8 9 9 6 7 8 11 13 7 3 1 3 3 3 3 3 3 4 3 2 4 3 3 3 7 6 3 2 3 8 9 9 12 20 29 34 38 40 38 38
26 26 28 27 27 30 33 28 25 33 41 40 38 38 39 44 35 16 3 4 3 4 7 11 15 23 26 27 23 16 24 23 11 19 28 22 18 12 7 10 14 10 5 4 3 1 2 11 14 12 7 5 5 6 12 14 7 3 4 5 5 4 3 2 2 2 1 2 8 7 5 5 6 5 3 1 3 7 8 7 10 19 28 34 38 41 41 42
26 28 29 27 29 31 29 33 38 33 30 35 34 35 42 39 21 6 5 4 3 1 8 13 13 21 24 17 10 15 18 11 16 27 22 17 19 14 13 17 16 10 3 4 3 2 1 9 14 7 3 4 6 5 5 7 5 4 4 4 5 4 4 3 1 2 0 6 8 6 7 6 6 5 4 4 5 7 8 7 9 15 23 29 33 37 40 41
27 29 29 28 31 32 30 40 46 36 27 30 34 42 42 23 6 5 7 4 4 2 6 9 12 20 24 15 9 14 13 10 20 23 14 13 16 15 16 14 8 6 2 2 1 0 4 7 6 2 5 8 8 5 2 3 3 4 3 3 3 2 2 3 3 2 4 8 4 3 2 6 7 5 3 6 6 6 8 8 9 13 20 24 25 26 30 33
28 29 29 32 34 33 38 45 44 38 32 28 34 44 28 7 2 5 4 6 6 4 5 10 14 18 21 16 11 12 12 12 17 17 13 10 9 11 11 8 7 6 3 5 3 2 3 3 3 2 8 10 8 5 3 3 3 3 3 4 3 1 1 1 2 1 5 6 3 3 1 4 8 6 6 8 8 8 10 12 14 15 19 20 17 17 19 23
28 28 29 35 37 37 44 43 36 37 35 32 37 31 10 4 7 4 5 5 4 5 7 12 17 19 20 17 11 12 12 12 15 14 13 11 8 7 3 3 8 4 3 8 5 3 1 2 4 4 5 12 12 7 5 5 6 6 5 5 5 3 4 5 4 2 4 5 3 1 1 3 5 4 9 11 11 14 14 16 19 19 20 20 16 15 16 18
29 29 32 36 38 41 44 39 35 34 34 37 32 15 6 7 4 4 7 4 3 7 8 11 16 17 15 11 10 12 9 9 14 12 10 11 9 6 4 6 7 4 6 8 4 6 5 2 7 8 6 12 13 8 6 6 7 8 5 4 4 3 5 6 4 3 4 3 3 2 2 4 2 3 8 11 14 15 14 17 19 21 23 22 20 18 17 18
31 33 35 37 40 42 41 40 38 34 38 39 20 6 8 6 1 5 8 5 5 8 8 13 18 15 10 9 9 8 4 7 14 11 9 11 10 10 9 10 9 5 7 8 3 6 6 2 4 5 9 15 11 6 8 8 6 6 4 4 6 5 3 1 3 4 3 1 2 2 3 4 3 6 7 6 10 13 16 18 19 23 25 21 22 23 19 18
34 37 38 39 43 42 40 42 39 37 43 34 10 6 8 2 1 6 8 9 10 13 15 15 14 12 8 6 8 6 3 6 13 9 7 9 9 11 9 8 11 10 9 8 3 3 5 1 1 4 8 12 12 11 8 6 6 3 4 6 5 3 4 1 2 1 3 2 3 2 4 5 3 7 8 5 5 8 11 14 17 24 24 19 23 25 22 19
35 38 39 42 44 42 43 44 40 42 45 25 6 7 5 1 4 6 9 13 14 19 19 13 9 11 11 7 8 11 9 9 12 9 8 8 6 11 11 9 14 15 12 8 3 3 5 2 1 5 6 6 12 17 9 4 6 6 6 7 2 2 2 1 2 2 1 4 4 1 4 5 2 5 6 4 5 7 8 9 13 19 19 20 27 27 24 21
37 37 40 45 44 42 44 44 43 47 39 15 5 6 2 3 7 8 12 15 17 19 14 9 8 9 14 14 12 17 17 13 13 10 10 8 6 12 16 11 14 18 15 9 4 3 6 4 2 3 5 2 5 12 8 4 5 5 4 5 4 3 4 3 3 2 3 5 4 2 3 3 4 5 3 3 8 9 9 9 9 13 18 23 29 27 23 20
39 33 34 44 45 44 45 45 48 45 25 8 7 5 0 4 9 15 22 20 15 17 12 9 10 7 11 15 13 18 19 16 17 13 10 10 5 12 19 12 11 19 18 11 6 4 5 5 1 2 4 4 3 6 9 7 2 4 3 3 2 3 5 5 4 3 3 4 4 3 3 3 6 6 5 7 9 8 10 10 7 11 18 22 25 24 22 21
40 25 22 42 47 43 47 49 45 31 11 7 10 5 1 5 10 21 33 28 15 10 10 12 13 11 12 13 12 14 12 12 17 12 8 9 3 5 16 13 10 18 19 10 6 5 4 4 3 2 2 5 3 6 9 9 6 4 4 5 4 3 2 2 2 2 2 3 3 3 3 5 6 5 8 10 10 9 10 8 7 11 16 18 21 21 20 20
41 17 13 40 46 46 55 44 24 13 6 7 8 5 5 7 11 18 30 30 15 4 6 11 11 10 12 13 13 13 10 9 14 9 3 8 6 3 12 15 13 16 16 8 5 5 3 3 6 5 4 5 3 2 4 7 9 7 6 6 5 5 3 3 5 2 2 3 4 3 4 7 6 5 9 11 10 7 3 4 7 12 14 14 16 17 17 18
34 9 14 42 49 55 55 24 7 12 8 5 7 7 9 11 13 18 22 23 11 1 5 8 6 7 10 12 13 13 11 9 14 11 5 9 10 4 10 20 22 20 15 8 5 4 4 5 5 4 4 4 1 2 2 3 6 5 4 5 4 4 5 6 8 3 1 1 1 2 4 7 6 5 7 9 8 7 7 7 10 14 14 13 14 14 15 15
23 11 27 48 57 63 44 9 8 15 6 7 14 7 6 9 14 18 18 17 8 3 7 7 7 10 10 10 11 13 11 8 12 10 3 5 6 3 14 27 29 21 11 7 6 5 5 5 4 4 1 2 3 4 4 4 4 4 4 4 5 4 4 4 5 3 3 3 2 2 6 7 6 3 5 9 11 13 15 13 14 18 17 16 15 14 13 14
23 25 38 51 63 62 32 5 11 11 2 11 14 4 1 3 12 20 18 15 9 6 10 9 10 11 9 10 13 15 13 8 8 7 2 4 5 8 23 33 30 19 10 10 11 8 6 4 5 6 4 2 2 2 2 2 3 4 3 3 5 4 4 2 2 2 3 6 6 6 8 7 5 4 3 7 7 10 13 11 12 17 18 16 14 12 11 12
21 22 32 48 64 56 27 12 14 8 6 12 10 7 6 2 10 22 22 15 7 6 9 7 9 9 8 10 10 10 10 6 6 7 2 3 3 6 24 36 30 19 13 15 17 11 6 4 6 8 8 8 8 6 7 6 3 2 2 3 4 5 6 4 1 3 6 6 5 7 7 6 6 5 5 6 5 7 10 7 6 11 14 13 11 9 10 10
15 10 15 30 46 42 22 16 17 9 9 14 9 7 10 6 7 15 17 11 3 5 7 5 11 12 8 12 10 9 11 2 3 6 4 6 4 2 20 36 30 21 17 21 24 13 3 3 7 10 10 11 11 7 6 10 8 8 9 9 7 7 7 5 2 5 6 1 2 6 5 3 6 5 5 7 6 6 8 7 7 8 10 10 8 7 9 9
16 9 9 13 19 21 11 7 11 9 10 15 10 7 12 13 8 6 9 5 3 9 8 5 13 13 12 18 14 12 14 3 4 10 9 7 4 3 13 25 22 20 19 21 25 14 3 4 11 13 11 6 5 5 8 12 13 14 13 12 9 8 9 8 8 10 5 3 8 8 5 5 8 6 6 9 7 5 6 8 10 9 8 8 8 8 8 9
12 11 20 23 13 7 9 7 8 11 13 12 9 10 15 16 12 10 7 2 3 11 8 5 14 18 19 23 15 12 15 6 4 10 9 7 6 6 9 10 13 22 19 14 18 12 2 7 12 11 10 4 4 8 10 11 11 10 13 13 10 9 10 11 15 12 7 7 13 5 6 9 8 6 9 9 5 4 6 8 9 10 9 7 7 8 9 9
9 10 18 23 13 8 15 15 12 15 14 8 6 10 15 18 17 12 6 4 6 10 11 12 18 21 23 23 15 13 16 11 10 13 13 14 14 11 11 7 10 22 20 11 12 9 4 6 8 9 8 4 4 8 10 11 9 8 12 14 12 11 12 14 17 13 8 12 13 3 7 12 6 6 11 9 6 6 6 8 10 10 9 7 6 8 9 10
15 17 16 11 7 12 19 16 14 15 11 8 8 10 15 20 20 13 7 10 13 12 13 18 21 22 23 22 18 17 24 25 21 19 18 18 15 12 12 8 7 14 15 10 7 4 3 5 4 7 6 1 1 4 6 8 9 9 10 13 14 16 16 17 17 10 8 14 12 5 11 14 5 5 12 15 17 15 11 13 15 13 9 8 8 9 10 11
24 34 36 21 6 9 15 12 12 14 9 8 10 11 15 19 23 18 8 7 12 14 14 16 19 17 16 20 22 21 23 20 11 11 16 17 14 10 6 5 8 10 9 7 5 2 2 2 3 6 6 3 2 3 4 5 5 4 9 14 18 18 16 16 14 11 13 16 11 7 12 9 3 4 12 18 20 16 14 18 21 17 12 12 13 13 14 13
30 35 38 27 11 9 14 11 10 13 10 9 10 12 15 17 20 19 9 2 4 8 12 15 17 14 13 20 22 15 12 10 10 15 18 15 13 10 8 12 18 16 10 6 3 3 5 4 3 5 6 3 2 5 7 7 5 4 11 15 17 15 13 13 14 16 18 15 10 11 13 4 6 6 12 14 13 11 16 24 26 22 18 18 20 21 22 22
Wind_Direction
222 217 215 217 219 218 220 227 227 222 217 214 212 209 209 207 204 207 207 203 201 202 202 198 195 193 192 192 191 189 187 184 182 182 183 184 184 190 196 198 197 197 198 205 210 207 219 231 194 183 182 226 350 7 20 15 6 359 106 91 168 181 197 187 185 196 174 229 210 192 187 182 187 184 179 184 199 203 187 190 198 199 206 211 204 217 179 168
221 217 213 215 220 219 217 222 224 224 219 213 211 209 207 206 203 205 205 202 199 200 202 198 194 193 192 192 192 191 192 192 195 194 185 182 181 181 188 194 192 192 192 195 211 214 216 231 210 197 199 228 311 345 10 11 3 21 112 116 213 200 209 199 193 195 193 260 197 193 193 190 199 182 176 186 194 178 181 199 210 207 211 215 215 206 184 172
218 216 213 215 221 223 221 220 222 227 220 212 211 208 208 207 203 204 204 202 199 198 200 198 193 192 191 192 192 191 192 197 209 205 188 182 180 176 178 187 190 190 191 184 195 211 209 208 224 229 236 253 285 331 358 9 4 8 62 291 236 219 246 249 229 215 220 239 186 192 198 198 205 186 181 190 178 180 199 205 208 212 211 214 218 203 188 178
218 215 213 214 218 223 226 223 221 224 221 216 214 208 208 210 204 202 203 201 199 197 198 197 193 192 192 192 192 192 192 200 219 207 191 186 181 177 177 178 186 190 192 188 176 197 209 208 224 247 246 259 285 320 6 18 7 341 356 202 244 243 274 278 269 255 242 238 215 192 186 203 205 189 187 176 151 226 229 214 212 216 209 207 211 201 192 185
220 218 215 211 212 218 226 225 220 220 221 222 219 209 205 208 205 200 201 200 198 196 196 196 193 193 192 191 192 192 189 194 223 206 193 190 187 184 184 178 179 184 190 197 185 171 196 204 213 236 237 280 292 287 21 16 7 328 278 255 290 318 248 300 317 304 262 238 218 183 179 201 193 192 196 182 177 227 231 224 221 222 216 210 209 200 195 191
217 218 216 210 207 213 222 226 222 219 223 222 217 210 204 205 203 201 201 198 198 196 196 196 193 193 192 191 191 189 187 168 214 206 199 194 196 194 191 189 182 178 182 193 189 162 150 174 186 200 194 57 325 270 343 358 359 329 283 299 305 300 267 292 305 308 287 230 205 194 200 192 178 197 204 197 209 220 232 237 226 224 223 217 212 202 197 196
215 215 215 210 206 210 218 222 219 215 218 219 214 209 205 203 198 199 201 198 197 195 195 197 195 193 192 190 189 188 192 186 125 201 203 200 202 200 197 198 195 190 187 189 185 169 148 150 163 169 167 98 62 288 341 342 343 265 256 316 319 311 290 292 296 296 286 241 226 213 205 188 182 195 203 210 220 219 234 257 231 224 221 214 210 208 206 201
212 214 215 212 207 209 216 220 216 213 216 218 215 209 206 205 199 196 200 199 196 195 194 196 195 193 192 189 184 185 196 198 143 180 202 205 207 206 206 207 207 208 205 203 198 185 164 144 151 157 154 122 141 78 15 349 344 47 283 323 328 318 308 306 301 297 282 249 233 210 202 199 194 191 209 221 223 220 229 259 239 221 215 210 209 211 210 204
208 213 215 214 211 211 218 223 222 225 228 226 222 216 209 205 201 198 199 200 197 195 194 194 193 190 191 189 181 183 200 200 194 127 194 205 210 212 212 212 213 214 210 213 214 206 191 159 155 161 157 148 156 93 32 19 355 13 316 314 318 312 312 308 298 300 280 243 212 196 205 206 195 200 248 236 227 222 228 248 242 216 210 209 210 211 210 207
205 210 215 214 212 214 218 221 223 229 234 231 227 229 218 204 199 198 198 199 197 194 193 192 190 186 187 186 178 183 202 197 198 215 195 199 206 212 214 216 217 216 212 215 224 220 208 186 176 170 158 151 155 131 46 72 311 332 321 315 308 306 310 298 289 297 264 234 206 189 187 201 186 191 251 240 226 221 223 234 229 211 209 210 210 212 210 210
205 207 216 214 210 213 217 217 218 224 231 233 230 233 227 206 195 194 196 198 197 194 194 192 187 185 185 184 179 184 196 193 199 211 206 194 198 204 211 216 220 220 216 213 222 226 220 209 193 177 157 149 146 145 298 275 314 328 328 319 308 311 311 282 272 273 228 226 210 184 132 202 167 199 236 231 216 217 219 224 219 208 209 212 211 211 211 212
209 207 214 214 209 210 216 217 214 218 225 232 233 231 232 212 196 192 192 196 197 194 194 191 187 186 182 184 187 187 187 192 197 191 158 184 192 195 204 212 218 222 220 218 220 223 226 222 209 195 166 153 150 147 279 275 319 328 333 321 310 325 317 272 251 231 198 206 202 169 131 271 204 224 229 228 220 212 214 221 217 208 208 211 211 211 212 214
215 212 214 216 210 209 214 215 212 214 218 228 231 227 234 216 197 192 189 192 197 194 193 190 187 185 178 180 188 186 184 187 190 176 143 166 183 185 194 201 208 214 217 221 223 220 218 218 216 198 157 143 156 171 213 345 336 331 333 303 312 334 315 273 230 189 175 180 184 158 206 256 236 235 225 221 224 210 209 217 216 209 206 208 210 212 214 215
218 218 216 217 211 208 212 211 213 214 212 222 228 225 233 214 193 191 190 190 195 194 192 190 186 183 179 179 182 182 182 183 187 183 162 158 168 177 186 187 190 195 199 207 215 212 206 210 209 187 160 147 148 163 359 355 354 338 316 272 309 312 281 295 228 166 160 190 187 161 230 255 252 247 231 221 224 211 208 214 214 211 207 208 210 213 216 217
219 220 216 218 211 207 210 209 211 211 206 213 223 223 229 221 195 191 193 189 192 193 188 187 185 180 178 182 183 180 178 183 189 191 183 169 161 165 176 179 177 180 185 189 195 195 195 204 193 166 154 148 133 114 54 1 357 353 294 283 318 218 265 304 262 176 168 187 178 161 233 261 271 263 236 220 220 213 211 213 213 212 209 210 212 214 218 220
218 220 216 217 212 207 208 210 210 206 205 208 219 223 224 232 203 190 194 190 190 191 182 180 182 179 175 181 183 179 177 183 188 190 189 186 176 162 164 169 166 168 171 170 176 180 180 178 164 154 148 144 132 102 77 359 275 328 218 254 290 250 268 309 283 199 163 126 171 188 237 262 274 278 238 214 213 211 211 214 214 213 213 213 214 217 219 221
217 219 218 215 213 209 204 211 211 205 210 209 219 228 225 235 210 189 193 192 188 187 183 181 180 178 175 171 176 178 180 182 182 184 183 186 194 181 168 162 155 160 159 156 163 166 164 157 149 151 146 136 127 119 132 208 225 230 182 238 259 235 239 283 290 243 148 110 191 213 235 248 262 291 288 212 210 208 210 215 217 215 216 217 218 219 221 222
217 219 221 216 213 210 203 210 211 207 211 210 216 225 228 237 213 191 187 186 180 180 183 181 175 173 182 178 176 180 184 181 175 178 175 177 193 195 183 168 157 156 147 143 154 156 153 146 142 145 139 148 146 158 189 210 204 193 181 229 259 235 224 245 272 234 153 123 193 198 233 256 264 272 279 242 215 214 216 218 221 222 221 221 221 222 223 224
220 221 222 219 215 211 205 208 210 209 208 205 208 217 228 229 206 192 183 176 171 175 179 172 172 180 198 180 176 179 183 179 170 172 173 172 182 189 185 173 161 153 140 129 151 158 144 120 139 166 155 166 174 183 187 126 84 149 181 226 270 255 243 233 252 255 170 155 207 205 220 244 254 258 260 261 226 223 228 228 228 229 226 223 224 225 227 228
223 224 223 222 218 213 207 207 209 210 206 199 194 206 221 212 194 189 180 174 174 177 170 171 177 185 168 166 169 173 174 174 171 170 172 175 175 171 165 158 151 147 142 135 152 162 154 153 184 183 167 173 178 175 159 110 70 310 266 282 278 264 276 262 259 290 223 179 227 219 222 242 251 259 261 255 232 225 230 233 234 233 230 228 226 228 230 231
225 228 228 225 222 216 210 208 209 210 207 196 189 202 214 206 193 187 176 170 178 184 172 172 178 178 155 160 167 166 158 160 170 170 171 175 172 161 152 151 143 130 140 129 124 151 173 190 183 172 169 163 155 144 149 155 149 304 287 285 281 250 265 269 266 316 348 182 251 241 235 253 254 260 263 231 211 226 229 230 234 233 231 232 231 231 233 234
227 231 230 227 226 220 214 211 210 212 209 200 195 206 216 216 208 192 182 131 161 177 162 167 172 160 153 159 167 164 151 142 159 166 167 169 169 161 152 156 145 115 125 121 116 140 185 205 166 153 138 128 134 140 151 169 181 267 276 283 282 259 273 272 255 326 7 181 272 326 247 257 258 258 249 215 220 241 242 237 238 235 231 233 233 233 234 236
228 232 231 230 228 223 221 214 210 213 211 207 205 209 216 222 225 194 183 123 103 157 152 163 163 147 150 157 164 163 154 148 157 165 168 168 168 160 151 151 138 134 141 150 155 159 183 211 155 139 130 129 142 151 150 155 173 227 249 262 267 260 281 281 278 319 14 92 248 34 268 267 265 269 259 232 231 244 251 249 247 241 235 237 236 236 238 238
230 232 232 231 228 227 226 216 215 216 211 212 211 211 214 220 229 193 168 108 44 139 148 160 156 149 152 156 163 164 159 160 162 165 169 169 163 155 153 145 132 140 165 174 172 162 174 215 154 140 145 150 149 160 161 165 195 219 223 232 249 253 240 247 305 311 334 9 102 84 316 284 255 259 267 244 233 242 249 246 246 243 240 242 243 243 243 243
232 234 233 231 229 228 226 222 222 214 211 215 213 215 217 217 221 192 160 73 53 152 147 154 147 148 153 156 163 161 151 156 166 166 167 171 164 150 146 148 146 162 177 172 171 161 198 206 161 143 158 160 154 173 175 171 194 227 224 221 232 248 250 253 315 321 303 281 261 113 265 274 284 259 252 248 225 239 244 236 238 242 241 242 244 244 244 245
236 238 235 232 230 225 223 228 221 210 215 219 212 220 219 209 208 194 173 47 162 196 166 157 146 150 154 155 157 150 139 148 167 165 164 172 171 154 141 150 154 165 162 158 166 156 171 191 169 154 160 161 163 182 180 169 177 238 229 204 216 236 244 244 291 266 221 254 277 136 203 259 305 267 243 254 258 248 248 245 241 242 241 240 243 245 243 243
243 242 239 236 230 221 214 220 220 211 217 219 214 222 214 199 201 195 180 346 195 181 162 156 149 159 158 154 153 150 144 145 155 165 163 166 171 159 151 158 138 148 148 141 173 162 143 171 178 160 153 158 179 184 177 165 159 231 242 173 199 226 232 221 192 205 236 281 298 301 169 244 273 251 250 330 282 268 264 260 252 244 240 239 242 244 243 241
247 246 245 236 225 219 212 214 222 215 215 216 214 220 211 197 197 188 176 267 183 141 154 143 137 155 153 152 155 145 135 142 146 170 165 160 166 157 153 163 139 135 138 142 181 165 132 168 176 158 156 178 188 168 160 162 169 230 211 104 168 200 226 211 185 220 274 340 273 256 153 218 261 266 311 22 245 262 258 249 248 243 238 237 239 242 243 243
248 248 248 236 224 222 219 219 223 219 218 215 213 220 211 194 186 173 183 242 144 114 160 141 134 148 143 145 151 132 136 144 141 164 162 159 163 153 136 147 130 116 102 93 151 185 190 187 176 160 168 189 162 141 158 169 181 189 133 87 69 63 54 75 163 199 12 282 245 229 185 213 263 266 282 312 236 244 253 251 245 242 239 237 239 241 243 244
250 248 245 237 227 224 223 224 222 218 220 218 214 212 199 184 168 165 226 193 113 122 155 144 147 148 139 134 134 132 138 133 134 152 161 156 154 137 118 129 120 110 89 40 103 170 137 169 172 166 166 147 123 118 143 163 153 112 119 89 51 36 35 43 56 100 152 256 248 229 195 203 258 260 219 224 218 208 225 249 256 252 246 242 242 244 245 246
251 247 242 233 225 221 218 220 220 214 216 221 206 187 180 173 154 199 204 143 115 164 146 144 151 147 144 139 138 145 136 122 141 151 156 151 148 133 123 128 114 99 112 61 101 41 73 132 168 169 142 125 117 133 88 68 94 83 105 119 72 356 12 14 359 71 218 242 273 309 196 191 239 255 220 241 243 217 214 227 243 251 250 248 247 249 250 251
251 245 240 229 221 219 215 216 217 211 213 218 190 170 163 158 193 192 167 139 150 181 170 153 152 152 150 143 140 145 136 138 155 158 154 151 157 154 150 163 154 126 164 178 153 68 87 156 199 145 156 151 138 148 129 92 101 94 129 150 143 173 166 233 237 169 233 245 299 335 161 205 241 247 252 265 266 248 231 226 237 249 257 258 255 255 256 253
250 241 237 229 222 219 216 215 217 214 212 205 182 166 155 197 191 150 128 156 153 155 167 159 155 154 149 143 142 142 136 147 160 159 154 150 155 165 159 160 153 122 152 163 141 114 96 288 208 161 172 177 169 161 161 167 169 171 179 175 171 157 170 205 209 213 250 260 285 289 185 250 280 263 242 243 243 243 240 242 250 257 262 263 262 261 259 254
247 238 233 230 225 221 218 215 216 218 209 195 183 172 185 198 178 115 138 165 139 139 155 151 146 143 137 135 144 144 135 150 159 153 148 150 157 170 168 178 172 87 108 148 157 167 159 232 203 184 170 177 182 181 157 135 158 185 176 159 208 211 182 199 202 208 237 258 281 284 190 206 220 251 243 241 252 254 248 251 256 259 260 262 265 264 262 260
245 238 232 231 227 223 220 213 214 216 200 188 184 192 192 181 131 147 146 146 138 132 140 144 140 134 126 128 143 146 121 154 160 153 158 166 172 178 173 182 183 132 132 158 165 171 172 236 226 173 152 165 175 171 142 124 147 189 150 147 228 220 148 163 194 184 186 221 271 249 223 214 212 267 278 273 273 266 251 252 256 258 260 262 263 262 260 263
244 238 233 233 228 222 217 212 213 210 195 187 189 206 191 158 173 167 145 153 155 142 141 146 145 136 129 131 145 141 78 148 159 155 172 177 179 184 177 179 181 165 154 155 132 159 170 246 315 99 139 171 173 161 163 167 157 152 169 189 218 170 114 59 254 93 82 213 251 200 237 288 310 282 298 331 303 279 260 256 252 253 257 259 259 258 255 258
241 236 234 232 226 219 212 207 208 202 194 196 217 191 176 83 171 154 143 154 151 147 147 149 157 150 143 145 156 155 134 140 161 163 169 175 192 192 182 188 186 176 168 156 137 186 155 102 252 153 148 185 175 166 182 213 145 139 194 192 135 94 121 155 245 328 71 228 271 190 222 274 277 265 306 339 283 272 263 253 251 255 255 251 253 253 249 252
236 231 231 231 223 213 207 203 200 193 190 204 226 187 153 131 156 145 149 152 149 155 154 151 164 161 158 159 162 163 154 152 169 173 169 177 207 192 181 189 187 179 177 153 118 182 145 96 307 196 154 154 158 164 190 234 164 144 173 159 126 192 216 189 193 221 202 227 280 303 259 251 212 231 284 243 234 246 254 248 247 252 246 243 249 251 248 247
227 220 226 225 214 205 203 197 192 188 187 214 215 199 29 139 152 155 157 155 155 162 161 161 165 162 169 166 158 164 164 165 170 171 176 184 208 192 182 180 176 178 180 157 128 177 144 112 281 243 156 143 131 175 193 205 166 77 106 163 161 194 209 201 185 184 198 223 262 289 305 264 223 218 211 227 235 233 246 252 244 247 249 248 252 255 253 244
211 203 222 215 205 200 194 187 186 187 192 217 202 197 188 151 155 164 164 160 160 171 172 170 167 161 166 162 152 164 169 168 171 172 182 178 176 200 186 178 167 172 172 151 127 163 145 119 146 151 143 143 161 207 192 181 176 156 175 195 192 192 209 224 207 169 160 193 218 242 273 265 247 214 198 223 240 230 236 250 252 260 265 265 262 261 259 248
195 191 212 201 197 188 180 177 183 189 200 206 189 176 181 164 150 163 170 166 161 173 170 167 168 162 159 155 156 169 164 159 174 179 181 176 173 213 191 177 157 157 160 148 148 170 155 128 138 143 171 165 176 241 176 170 182 183 196 200 189 193 187 213 230 213 123 192 192 186 259 268 254 211 202 217 227 227 242 261 263 273 280 283 279 270 264 255
187 188 182 185 186 176 171 170 179 188 205 184 147 153 164 156 151 161 172 172 169 131 140 150 150 147 160 165 163 168 163 161 178 183 191 192 188 198 178 160 148 153 159 149 161 164 107 105 118 131 184 183 160 4 69 146 152 147 201 205 174 183 185 210 232 216 121 253 139 133 260 269 256 219 213 233 248 269 287 280 274 282 290 293 291 280 265 255
180 161 163 176 179 171 167 174 181 184 215 143 141 152 162 156 160 159 166 175 179 157 146 148 156 162 173 169 157 164 164 161 180 180 154 181 184 166 160 153 149 157 160 138 156 167 129 113 101 100 98 353 357 3 18 38 104 151 216 184 162 196 186 201 225 179 190 222 152 200 257 266 269 244 230 258 275 278 273 270 271 278 284 285 285 283 271 256
163 147 155 171 176 171 167 191 176 172 184 144 141 138 97 146 160 159 166 177 176 163 162 165 170 170 171 162 162 171 166 156 186 190 116 148 171 159 160 158 155 162 173 168 170 172 159 140 120 123 112 39 359 319 280 230 183 188 199 145 158 166 112 116 207 136 228 226 182 209 245 253 275 305 289 273 283 279 270 266 264 270 281 283 278 276 269 257
149 144 152 163 171 174 175 181 170 151 144 147 135 140 141 103 172 168 167 171 165 154 158 158 150 138 139 151 151 167 169 151 175 183 108 113 150 160 163 164 166 172 175 166 160 154 152 156 148 145 153 174 189 207 207 192 174 159 138 131 161 168 156 169 177 181 235 233 178 209 242 261 287 307 306 294 301 292 287 290 273 271 284 288 280 272 266 257
146 149 152 158 168 177 181 172 165 152 147 146 134 152 154 143 179 175 165 164 150 127 125 121 131 119 127 149 141 171 190 157 107 159 146 146 158 198 173 171 173 172 161 155 156 151 121 161 182 181 184 186 188 190 149 132 152 190 181 160 162 178 174 150 141 216 220 172 206 231 226 254 279 277 281 286 285 277 284 299 304 301 301 297 290 280 270 259
157 161 159 152 165 177 179 163 161 158 156 153 145 159 160 153 159 168 168 186 169 136 115 112 147 144 157 163 158 179 185 136 93 158 161 158 127 57 166 173 175 166 153 154 161 153 95 186 198 203 206 192 158 149 137 145 176 191 178 169 171 170 162 164 212 224 169 141 251 240 178 209 255 261 265 271 267 260 273 289 304 313 311 299 292 286 280 271
155 155 161 159 152 167 174 165 160 158 159 159 152 157 157 152 157 167 172 213 182 154 132 136 168 168 169 169 166 173 175 162 153 165 160 159 140 113 153 177 181 167 156 159 169 162 150 203 199 198 203 195 136 146 150 160 181 180 175 184 182 173 175 195 224 223 167 212 250 229 169 216 235 243 254 252 237 244 272 290 305 307 304 301 294 284 277 267
123 120 150 158 150 155 160 153 153 160 164 157 142 155 156 153 162 172 159 147 181 179 162 166 179 177 173 173 167 164 173 176 182 183 176 169 163 154 156 173 190 175 166 167 181 176 178 198 188 175 183 195 169 165 156 154 163 172 186 192 186 188 199 212 229 229 203 237 258 258 236 244 225 223 256 272 289 286 285 296 299 298 299 298 283 275 269 259
145 144 143 138 128 155 157 152 156 162 165 161 155 164 164 161 165 171 168 167 174 183 180 178 179 176 173 173 172 180 188 188 187 185 175 166 165 167 170 172 178 175 170 170 183 185 185 189 150 134 156 212 243 176 152 146 157 173 194 199 196 201 209 218 230 231 226 247 256 264 267 264 234 224 265 282 289 288 287 287 286 286 297 303 291 283 279 269
157 158 157 151 128 152 157 154 157 159 167 180 170 166 168 169 168 165 173 192 179 181 187 179 170 168 169 179 189 197 195 187 174 159 160 164 164 162 170 157 142 153 166 167 160 123 112 161 106 116 156 245 306 141 128 98 108 175 217 211 203 204 212 221 225 218 225 242 249 255 264 261 171 211 260 267 269 269 271 271 271 272 279 287 283 277 274 273
158 160 162 158 144 150 157 154 159 165 173 176 168 168 173 174 169 162 160 210 204 183 171 157 153 156 173 191 197 189 164 136 110 131 152 159 151 136 129 142 149 155 157 140 120 118 120 123 120 136 162 245 294 139 127 87 71 258 239 210 198 204 211 220 226 220 221 230 234 242 249 215 141 209 246 256 253 245 250 254 255 259 263 266 268 268 269 272